Weather History for KVGT - February, 2014

Change the Weather History Date:

Friday, February 14, 2014

  Actual Average Record
Temperature  
Mean Temperature 60 °F -  
Max Temperature 72 °F 60 °F 111 °F (1999)
Min Temperature 48 °F 41 °F 21 °F (1951)
Degree Days  
Heating Degree Days 5    
Growing Degree Days 10 (Base 50)    
Moisture  
Dew Point 25 °F    
Average Humidity 29    
Maximum Humidity 44    
Minimum Humidity 16    
Precipitation  
Precipitation 0.00 in - - ()
Sea Level Pressure  
Sea Level Pressure 30.08 in    
Wind  
Wind Speed 3 mph (NW)    
Max Wind Speed 8 mph    
Max Gust Speed -    
Visibility 10 miles    
Events      
Averages and records for this station are not official NWS values.
T = Trace of Precipitation, MM = Missing Value Source: NWS Daily Summary

Daily Weather History Graph

Daily Weather History Graph

Search for Another Location

Airport or City:

Trip Planner

Search our weather history database for the weather conditions in past years. The results will help you decide how hot, cold, wet, or windy it might be!

Date:

Astronomy

Feb. 14, 2014 Rise Set
Actual Time 6:29 AM PST 5:21 PM PST
Civil Twilight 6:02 AM PST 5:47 PM PST
Nautical Twilight 5:32 AM PST 6:17 PM PST
Astronomical Twilight 5:02 AM PST 6:47 PM PST
Moon 5:27 PM PST (2/14) 5:59 AM PST (2/14)
Length of Visible Light 11h 44m
Length of Day
10h 51m
Full, 100% of the Moon is Illuminated
Feb 14
Full
Feb 14
Full
Feb 22
Last Quarter
Mar 1
New
Mar 8
First Quarter

Hourly Weather History & Observations

Time (PST) Temp. Dew Point Humidity Pressure Visibility Wind Dir Wind Speed Gust Speed Precip Events Conditions
12:53 AM 52.0 °F 26.1 °F 37% 30.06 in 10.0 mi NNW 4.6 mph - N/A   Clear
1:53 AM 50.0 °F 25.0 °F 38% 30.06 in 10.0 mi NW 5.8 mph - N/A   Clear
2:53 AM 51.1 °F 24.1 °F 35% 30.06 in 10.0 mi NNW 8.1 mph - N/A   Clear
3:53 AM 50.0 °F 25.0 °F 38% 30.07 in 10.0 mi Calm Calm - N/A   Clear
4:53 AM 50.0 °F 26.1 °F 39% 30.09 in 10.0 mi SW 3.5 mph - N/A   Clear
5:53 AM 48.0 °F 26.1 °F 42% 30.10 in 10.0 mi Calm Calm - N/A   Clear
6:53 AM 48.0 °F 27.0 °F 44% 30.12 in 10.0 mi Calm Calm - N/A   Clear
7:53 AM 52.0 °F 25.0 °F 35% 30.13 in 10.0 mi NNE 3.5 mph - N/A   Clear
8:53 AM 55.9 °F 25.0 °F 30% 30.14 in 10.0 mi Calm Calm - N/A   Clear
9:53 AM 61.0 °F 25.0 °F 25% 30.14 in 10.0 mi North 4.6 mph - N/A   Clear
10:53 AM 64.9 °F 24.1 °F 21% 30.13 in 10.0 mi Variable 3.5 mph - N/A   Clear
11:53 AM 66.9 °F 24.1 °F 20% 30.11 in 10.0 mi Calm Calm - N/A   Clear
12:53 PM 68.0 °F 23.0 °F 18% 30.08 in 10.0 mi Calm Calm - N/A   Clear
1:53 PM 70.0 °F 21.9 °F 16% 30.06 in 10.0 mi SSE 4.6 mph - N/A   Clear
2:53 PM 72.0 °F 23.0 °F 16% 30.05 in 10.0 mi Calm Calm - N/A   Clear
3:53 PM 72.0 °F 23.0 °F 16% 30.04 in 10.0 mi Calm Calm - N/A   Clear
4:53 PM 71.1 °F 21.9 °F 16% 30.04 in 10.0 mi Calm Calm - N/A   Clear
5:53 PM 66.0 °F 23.0 °F 20% 30.05 in 10.0 mi Calm Calm - N/A   Clear
6:53 PM 61.0 °F 26.1 °F 26% 30.06 in 10.0 mi NW 3.5 mph - N/A   Clear
7:53 PM 60.1 °F 27.0 °F 28% 30.06 in 10.0 mi NW 3.5 mph - N/A   Clear
8:53 PM 55.9 °F 28.0 °F 34% 30.06 in 10.0 mi Calm Calm - N/A   Clear
9:53 PM 55.0 °F 28.0 °F 35% 30.06 in 10.0 mi Calm Calm - N/A   Clear
10:53 PM 54.0 °F 28.9 °F 38% 30.05 in 10.0 mi WNW 4.6 mph - N/A   Clear
11:53 PM 52.0 °F 28.0 °F 40% 30.04 in 10.0 mi NW 5.8 mph - N/A   Clear